Station Historical Data
Daily Summary for January 11, 2018 Units:  Metric    English   Both
« Previous Day
Next Day »
Daily Weekly Monthly Yearly Custom
  High: Low: Average:
Temperature: -17.8 °C 8.8 °C 12.1 °C
Dew Point: -17.8 °C 3.4 °C 7.6 °C
Humidity: Humidity% 65% 74%
Wind Speed: 0km/h 0km/h 10.5km/h
Wind Gust: 0km/h - -
Wind- - South
Pressure: 0 hPa 1009 hPa -
Precipitation: 0 mm    
Historical Graphs
 
 
Tabular Data for January 11, 2018
Time Temperature Dew Point Pressure Wind Wind Speed Wind Gust Humidity Rainfall Rate (Hourly)
-17.8 °C -17.8 °C 0 hPa Calm     Humidity% 0 mm
00:04 9.2 °C 4.1 °C 1017.8 hPa SSW 16.1 km/h 27.4 km/h 70% 0 mm
00:09 9.3 °C 3.9 °C 1017.8 hPa South 11.3 km/h 27.4 km/h 69% 0 mm
00:19 9.2 °C 3.8 °C 1017.8 hPa SSW 9.7 km/h 24.1 km/h 69% 0 mm
00:24 9.2 °C 3.8 °C 1017.8 hPa SSW 8 km/h 29 km/h 69% 0 mm
00:29 9.3 °C 3.9 °C 1017.5 hPa South 19.3 km/h 22.5 km/h 69% 0 mm
00:34 9.3 °C 3.9 °C 1017.5 hPa South 11.3 km/h 24.1 km/h 69% 0 mm
00:39 9.3 °C 3.7 °C 1017.5 hPa South 12.9 km/h 24.1 km/h 68% 0 mm
00:49 9.3 °C 3.7 °C 1017.5 hPa South 11.3 km/h 25.7 km/h 68% 0 mm
00:54 9.3 °C 3.7 °C 1017.5 hPa South 11.3 km/h 25.7 km/h 68% 0 mm
00:59 9.2 °C 3.6 °C 1017.5 hPa South 11.3 km/h 22.5 km/h 68% 0 mm
01:04 9.2 °C 3.6 °C 1017.5 hPa SSE 17.7 km/h 20.9 km/h 68% 0 mm
01:09 9.1 °C 3.4 °C 1017.5 hPa South 9.7 km/h 20.9 km/h 68% 0 mm
01:14 9.1 °C 3.4 °C 1017.5 hPa South 11.3 km/h 20.9 km/h 68% 0 mm
01:19 9 °C 3.6 °C 1017.5 hPa South 11.3 km/h 20.9 km/h 69% 0 mm
01:29 8.9 °C 3.6 °C 1017.5 hPa SSW 14.5 km/h 17.7 km/h 69% 0 mm
01:34 8.9 °C 3.6 °C 1017.5 hPa South 11.3 km/h 22.5 km/h 69% 0 mm
01:39 8.9 °C 3.6 °C 1017.5 hPa SW 16.1 km/h 20.9 km/h 69% 0 mm
01:44 9.1 °C 3.7 °C 1017.8 hPa SSE 17.7 km/h 25.7 km/h 69% 0 mm
01:49 9.1 °C 3.7 °C 1017.5 hPa South 11.3 km/h 25.7 km/h 69% 0 mm
01:54 8.9 °C 3.6 °C 1017.5 hPa South 9.7 km/h 20.9 km/h 69% 0 mm
01:59 8.9 °C 3.6 °C 1017.5 hPa SSW 9.7 km/h 24.1 km/h 69% 0 mm
02:09 9.1 °C 3.7 °C 1017.8 hPa South 9.7 km/h 25.7 km/h 69% 0 mm
02:14 9.1 °C 3.7 °C 1017.8 hPa SSW 8 km/h 25.7 km/h 69% 0 mm
02:19 9 °C 3.6 °C 1017.8 hPa SSW 8 km/h 17.7 km/h 69% 0 mm
02:24 8.9 °C 3.6 °C 1017.8 hPa SSE 6.4 km/h 12.9 km/h 69% 0 mm
02:29 8.8 °C 3.7 °C 1017.8 hPa South 3.2 km/h 12.9 km/h 70% 0 mm
02:34 8.8 °C 3.6 °C 1017.5 hPa SSE 4.8 km/h 12.9 km/h 70% 0 mm
02:39 8.9 °C 3.9 °C 1017.8 hPa South 9.7 km/h 11.3 km/h 71% 0 mm
02:44 9.1 °C 4.1 °C 1017.8 hPa SSW 6.4 km/h 14.5 km/h 71% 0 mm
02:59 9.1 °C 4.1 °C 1017.8 hPa South 6.4 km/h 11.3 km/h 71% 0 mm
03:04 9.2 °C 4.4 °C 1017.5 hPa South 6.4 km/h 14.5 km/h 72% 0 mm
03:09 9.3 °C 4.3 °C 1017.8 hPa South 6.4 km/h 14.5 km/h 71% 0 mm
03:14 9.3 °C 4.3 °C 1017.5 hPa South 6.4 km/h 14.5 km/h 71% 0 mm
03:19 9.4 °C 4.4 °C 1017.5 hPa South 6.4 km/h 17.7 km/h 71% 0 mm
03:24 9.6 °C 4.8 °C 1017.5 hPa South 6.4 km/h 19.3 km/h 72% 0 mm
03:29 9.8 °C 5 °C 1017.8 hPa South 8 km/h 19.3 km/h 72% 0 mm
03:39 10.1 °C 5.1 °C 1017.5 hPa South 12.9 km/h 17.7 km/h 71% 0 mm
03:49 10.3 °C 5.1 °C 1017.5 hPa South 9.7 km/h 20.9 km/h 70% 0 mm
03:54 10.2 °C 5 °C 1017.5 hPa SSW 4.8 km/h 16.1 km/h 70% 0 mm
03:59 10.1 °C 4.9 °C 1017.5 hPa South 8 km/h 16.1 km/h 70% 0 mm
04:04 10.1 °C 4.9 °C 1017.5 hPa South 12.9 km/h 14.5 km/h 70% 0 mm
04:09 10.2 °C 5 °C 1017.8 hPa South 8 km/h 14.5 km/h 70% 0 mm
04:14 10.3 °C 5.1 °C 1017.8 hPa South 9.7 km/h 16.1 km/h 70% 0 mm
04:19 10.3 °C 5.1 °C 1017.8 hPa SSW 8 km/h 19.3 km/h 70% 0 mm
04:24 10.3 °C 5.1 °C 1017.8 hPa South 8 km/h 19.3 km/h 70% 0 mm
04:34 10.3 °C 5.1 °C 1017.5 hPa South 9.7 km/h 24.1 km/h 70% 0 mm
04:39 10.3 °C 5.1 °C 1017.8 hPa SSW 9.7 km/h 19.3 km/h 70% 0 mm
04:44 10.4 °C 5.2 °C 1017.8 hPa South 11.3 km/h 22.5 km/h 70% 0 mm
04:49 10.5 °C 5.3 °C 1017.8 hPa South 8 km/h 20.9 km/h 70% 0 mm
04:54 10.7 °C 5.6 °C 1017.8 hPa South 6.4 km/h 29 km/h 71% 0 mm
04:59 10.7 °C 5.7 °C 1017.8 hPa SSW 11.3 km/h 22.5 km/h 71% 0 mm
05:04 10.8 °C 5.9 °C 1017.8 hPa WSW 12.9 km/h 19.3 km/h 72% 0 mm
05:09 10.8 °C 6 °C 1017.8 hPa South 9.7 km/h 24.1 km/h 72% 0 mm
05:14 10.8 °C 5.9 °C 1017.8 hPa SSW 8 km/h 22.5 km/h 72% 0 mm
05:19 10.7 °C 5.8 °C 1017.8 hPa South 11.3 km/h 19.3 km/h 72% 0 mm
05:24 10.5 °C 5.7 °C 1017.8 hPa South 9.7 km/h 20.9 km/h 72% 0 mm
05:29 10.5 °C 5.4 °C 1017.8 hPa South 9.7 km/h 20.9 km/h 71% 0 mm
05:34 10.5 °C 5.4 °C 1017.8 hPa South 20.9 km/h 24.1 km/h 71% 0 mm
05:39 10.6 °C 5.3 °C 1017.8 hPa SSW 11.3 km/h 24.1 km/h 70% 0 mm
05:44 10.6 °C 5.4 °C 1017.8 hPa SSW 9.7 km/h 29 km/h 70% 0 mm
05:49 10.6 °C 5.1 °C 1017.8 hPa SSW 9.7 km/h 29 km/h 69% 0 mm
05:54 10.4 °C 5.2 °C 1017.8 hPa SW 17.7 km/h 17.7 km/h 70% 0 mm
05:59 10.4 °C 5.2 °C 1017.8 hPa SSW 8 km/h 20.9 km/h 70% 0 mm
06:04 10.3 °C 5.1 °C 1017.8 hPa SSW 9.7 km/h 29 km/h 70% 0 mm
06:09 10.4 °C 5.2 °C 1017.8 hPa SSW 4.8 km/h 19.3 km/h 70% 0 mm
06:14 10.3 °C 5.1 °C 1017.8 hPa SSW 9.7 km/h 25.7 km/h 70% 0 mm
06:19 10.3 °C 5.1 °C 1017.5 hPa SSW 11.3 km/h 19.3 km/h 70% 0 mm
06:24 10.4 °C 5.4 °C 1017.5 hPa SSW 11.3 km/h 24.1 km/h 71% 0 mm
06:29 10.6 °C 5.5 °C 1017.5 hPa South 11.3 km/h 24.1 km/h 71% 0 mm
06:34 10.6 °C 5.6 °C 1017.5 hPa South 12.9 km/h 27.4 km/h 71% 0 mm
06:39 10.6 °C 5.6 °C 1017.8 hPa SSW 11.3 km/h 27.4 km/h 71% 0 mm
06:44 10.7 °C 5.6 °C 1017.8 hPa South 11.3 km/h 24.1 km/h 71% 0 mm
06:49 10.6 °C 5.5 °C 1017.8 hPa South 22.5 km/h 30.6 km/h 71% 0 mm
06:54 10.6 °C 5.5 °C 1017.5 hPa SSW 12.9 km/h 25.7 km/h 71% 0 mm
07:00 10.5 °C 5.4 °C 1017.8 hPa South 12.9 km/h 25.7 km/h 71% 0 mm
07:09 10.6 °C 5.9 °C 1017.8 hPa SSW 12.9 km/h 25.7 km/h 73% 0 mm
07:14 10.6 °C 5.7 °C 1017.8 hPa SSW 12.9 km/h 25.7 km/h 72% 0 mm
07:19 10.5 °C 5.9 °C 1017.8 hPa SSW 11.3 km/h 22.5 km/h 73% 0 mm
07:24 10.5 °C 5.9 °C 1017.8 hPa South 11.3 km/h 19.3 km/h 73% 0 mm
07:34 10.6 °C 5.9 °C 1017.8 hPa South 11.3 km/h 25.7 km/h 73% 0 mm
07:39 10.7 °C 6 °C 1017.8 hPa SSW 11.3 km/h 27.4 km/h 73% 0 mm
07:44 10.7 °C 6.1 °C 1017.8 hPa SSW 11.3 km/h 27.4 km/h 73% 0 mm
07:49 10.8 °C 6.1 °C 1017.8 hPa SSW 14.5 km/h 24.1 km/h 73% 0 mm
07:54 10.8 °C 6.2 °C 1018.2 hPa SSW 11.3 km/h 24.1 km/h 73% 0 mm
07:59 10.8 °C 6.1 °C 1018.2 hPa South 14.5 km/h 24.1 km/h 73% 0 mm
08:14 10.8 °C 5.9 °C 1018.2 hPa South 11.3 km/h 24.1 km/h 72% 0 mm
08:19 10.7 °C 5.9 °C 1018.2 hPa SSW 9.7 km/h 20.9 km/h 72% 0 mm
08:24 10.7 °C 6 °C 1018.2 hPa SSW 9.7 km/h 20.9 km/h 73% 0 mm
08:29 10.6 °C 6.1 °C 1018.2 hPa SSW 11.3 km/h 25.7 km/h 74% 0 mm
08:34 10.4 °C 6.2 °C 1018.2 hPa South 11.3 km/h 19.3 km/h 75% 0 mm
08:39 10.5 °C 6.3 °C 1018.2 hPa SSW 8 km/h 22.5 km/h 75% 0 mm
08:44 10.6 °C 6.3 °C 1018.2 hPa South 9.7 km/h 22.5 km/h 75% 0 mm
08:49 10.7 °C 6.4 °C 1018.2 hPa South 9.7 km/h 24.1 km/h 75% 0 mm
08:54 10.9 °C 6.6 °C 1018.2 hPa South 9.7 km/h 24.1 km/h 75% 0 mm
09:04 11.1 °C 6.7 °C 1018.2 hPa South 9.7 km/h 17.7 km/h 74% 0 mm
09:09 11.2 °C 6.8 °C 1018.2 hPa SW 11.3 km/h 14.5 km/h 74% 0 mm
09:14 11.3 °C 6.9 °C 1018.2 hPa South 9.7 km/h 19.3 km/h 74% 0 mm
09:24 11.6 °C 6.9 °C 1018.2 hPa South 8 km/h 20.9 km/h 73% 0 mm
09:29 11.8 °C 6.9 °C 1018.2 hPa SSW 6.4 km/h 22.5 km/h 72% 0 mm
09:34 11.8 °C 6.9 °C 1018.2 hPa South 6.4 km/h 17.7 km/h 72% 0 mm
09:39 11.9 °C 7 °C 1018.5 hPa SSW 9.7 km/h 19.3 km/h 72% 0 mm
09:44 11.8 °C 7.1 °C 1018.2 hPa SSW 9.7 km/h 19.3 km/h 73% 0 mm
09:49 11.7 °C 7.2 °C 1018.5 hPa SSW 9.7 km/h 20.9 km/h 74% 0 mm
09:54 11.6 °C 7.3 °C 1018.5 hPa SSW 8 km/h 19.3 km/h 75% 0 mm
09:59 11.5 °C 7.2 °C 1018.5 hPa South 16.1 km/h 17.7 km/h 75% 0 mm
10:04 11.6 °C 7.3 °C 1018.5 hPa South 9.7 km/h 19.3 km/h 75% 0 mm
10:09 11.7 °C 7.4 °C 1018.8 hPa SSW 9.7 km/h 22.5 km/h 75% 0 mm
10:14 11.7 °C 7.4 °C 1018.5 hPa South 12.9 km/h 24.1 km/h 75% 0 mm
10:19 11.4 °C 7.3 °C 1018.5 hPa South 8 km/h 22.5 km/h 76% 0 mm
10:24 11.2 °C 7.5 °C 1018.5 hPa South 9.7 km/h 22.5 km/h 78% 0 mm
10:29 11.2 °C 7.7 °C 1018.5 hPa South 11.3 km/h 27.4 km/h 79% 0 mm
10:34 11.2 °C 7.5 °C 1018.5 hPa South 11.3 km/h 27.4 km/h 78% 0 mm
10:49 11.7 °C 8 °C 1018.2 hPa SSW 8 km/h 12.9 km/h 78% 0 mm
10:54 12 °C 7.9 °C 1018.2 hPa South 8 km/h 25.7 km/h 76% 0 mm
10:59 12.2 °C 7.9 °C 1018.2 hPa SSE 8 km/h 22.5 km/h 75% 0 mm
11:04 12.5 °C 7.8 °C 1018.2 hPa South 11.3 km/h 22.5 km/h 73% 0 mm
11:14 13.1 °C 7.9 °C 1017.5 hPa SSE 11.3 km/h 19.3 km/h 71% 0 mm
11:19 13.4 °C 8 °C 1017.5 hPa South 9.7 km/h 24.1 km/h 70% 0 mm
11:24 13.5 °C 8.1 °C 1017.5 hPa South 1.6 km/h 16.1 km/h 70% 0 mm
11:29 13.4 °C 8.1 °C 1017.5 hPa South 14.5 km/h 17.7 km/h 70% 0 mm
11:34 13.5 °C 8.1 °C 1017.2 hPa South 6.4 km/h 27.4 km/h 70% 0 mm
11:39 13.6 °C 8.4 °C 1017.2 hPa South 11.3 km/h 27.4 km/h 71% 0 mm
11:44 13.8 °C 8.4 °C 1017.2 hPa South 9.7 km/h 19.3 km/h 70% 0 mm
11:49 13.9 °C 8.6 °C 1017.2 hPa South 9.7 km/h 19.3 km/h 70% 0 mm
11:54 14.2 °C 8.8 °C 1016.8 hPa SSE 14.5 km/h 32.2 km/h 70% 0 mm
11:59 14.4 °C 8.6 °C 1016.8 hPa SSW 14.5 km/h 20.9 km/h 68% 0 mm
12:04 14.4 °C 8.6 °C 1016.8 hPa South 12.9 km/h 27.4 km/h 68% 0 mm
12:09 14.6 °C 8.8 °C 1016.5 hPa South 12.9 km/h 27.4 km/h 68% 0 mm
12:14 14.8 °C 8.5 °C 1016.5 hPa SSW 11.3 km/h 20.9 km/h 66% 0 mm
12:19 15.1 °C 8.7 °C 1016.1 hPa SSW 12.9 km/h 29 km/h 66% 0 mm
12:24 15.1 °C 8.8 °C 1016.1 hPa SSW 8 km/h 27.4 km/h 66% 0 mm
12:34 15.6 °C 9 °C 1015.8 hPa SW 8 km/h 29 km/h 65% 0 mm
12:39 15.6 °C 9 °C 1015.8 hPa South 22.5 km/h 22.5 km/h 65% 0 mm
12:44 15.6 °C 9 °C 1015.8 hPa SSW 12.9 km/h 30.6 km/h 65% 0 mm
12:49 15.7 °C 9.1 °C 1015.8 hPa SSW 12.9 km/h 30.6 km/h 65% 0 mm
12:54 15.5 °C 9.2 °C 1015.5 hPa South 14.5 km/h 29 km/h 66% 0 mm
12:59 15.4 °C 9.1 °C 1015.5 hPa SE 4.8 km/h 27.4 km/h 66% 0 mm
13:04 15.3 °C 9 °C 1015.5 hPa SSW 16.1 km/h 24.1 km/h 66% 0 mm
13:09 15.3 °C 9.2 °C 1015.5 hPa SSW 11.3 km/h 22.5 km/h 67% 0 mm
13:14 15.4 °C 9.3 °C 1015.1 hPa South 12.9 km/h 30.6 km/h 67% 0 mm
13:19 15.4 °C 9.3 °C 1015.1 hPa SSW 12.9 km/h 30.6 km/h 67% 0 mm
13:24 15.4 °C 9.3 °C 1015.1 hPa SSW 12.9 km/h 30.6 km/h 67% 0 mm
13:29 15.5 °C 9.4 °C 1015.1 hPa South 9.7 km/h 20.9 km/h 67% 0 mm
13:34 15.6 °C 9.4 °C 1015.1 hPa SSW 11.3 km/h 25.7 km/h 67% 0 mm
13:39 15.6 °C 9.4 °C 1014.8 hPa SSE 14.5 km/h 29 km/h 67% 0 mm
13:44 15.5 °C 9.4 °C 1014.8 hPa SSE 17.7 km/h 27.4 km/h 67% 0 mm
13:54 15.7 °C 9.6 °C 1014.8 hPa South 11.3 km/h 32.2 km/h 67% 0 mm
13:59 16.1 °C 9.7 °C 1014.4 hPa SSW 12.9 km/h 29 km/h 66% 0 mm
14:09 15.9 °C 9.6 °C 1014.4 hPa South 12.9 km/h 30.6 km/h 66% 0 mm
14:14 15.9 °C 9.6 °C 1014.1 hPa South 11.3 km/h 20.9 km/h 66% 0 mm
14:19 15.8 °C 9.5 °C 1014.1 hPa South 4.8 km/h 20.9 km/h 66% 0 mm
14:24 15.8 °C 9.4 °C 1014.1 hPa SSE 22.5 km/h 22.5 km/h 66% 0 mm
14:29 15.8 °C 9.4 °C 1014.1 hPa South 9.7 km/h 22.5 km/h 66% 0 mm
14:34 15.8 °C 9.5 °C 1014.1 hPa South 11.3 km/h 24.1 km/h 66% 0 mm
14:39 15.9 °C 9.6 °C 1014.1 hPa South 11.3 km/h 24.1 km/h 66% 0 mm
14:44 15.9 °C 9.6 °C 1014.1 hPa SW 14.5 km/h 16.1 km/h 66% 0 mm
14:49 15.8 °C 9.5 °C 1014.1 hPa SSW 11.3 km/h 19.3 km/h 66% 0 mm
14:54 15.8 °C 9.4 °C 1014.1 hPa South 11.3 km/h 19.3 km/h 66% 0 mm
14:59 15.7 °C 9.4 °C 1014.1 hPa South 9.7 km/h 20.9 km/h 66% 0 mm
15:04 15.7 °C 9.3 °C 1014.1 hPa South 8 km/h 20.9 km/h 66% 0 mm
15:09 15.6 °C 9.3 °C 1013.8 hPa South 6.4 km/h 16.1 km/h 66% 0 mm
15:14 15.6 °C 9.3 °C 1013.8 hPa South 8 km/h 20.9 km/h 66% 0 mm
15:19 15.6 °C 9.2 °C 1014.1 hPa South 8 km/h 20.9 km/h 66% 0 mm
15:24 15.6 °C 9.3 °C 1014.1 hPa SW 12.9 km/h 14.5 km/h 66% 0 mm
15:29 15.5 °C 9.2 °C 1014.1 hPa SW 4.8 km/h 12.9 km/h 66% 0 mm
15:34 15.5 °C 9.2 °C 1014.1 hPa SSW 8 km/h 14.5 km/h 66% 0 mm
15:39 15.4 °C 9.1 °C 1014.1 hPa SSW 8 km/h 16.1 km/h 66% 0 mm
15:44 15.3 °C 9.2 °C 1014.1 hPa SSW 8 km/h 19.3 km/h 67% 0 mm
15:49 15.3 °C 9.4 °C 1014.1 hPa SSW 9.7 km/h 19.3 km/h 68% 0 mm
15:54 15.2 °C 9.3 °C 1014.1 hPa SW 6.4 km/h 20.9 km/h 68% 0 mm
15:59 15.1 °C 9.2 °C 1014.1 hPa SSW 9.7 km/h 20.9 km/h 68% 0 mm
16:09 14.8 °C 9.2 °C 1014.1 hPa SSW 4.8 km/h 9.7 km/h 69% 0 mm
16:14 14.8 °C 9.2 °C 1014.1 hPa SSW 4.8 km/h 12.9 km/h 69% 0 mm
16:19 14.8 °C 9.2 °C 1014.1 hPa SSW 4.8 km/h 12.9 km/h 69% 0 mm
16:24 14.7 °C 9.3 °C 1014.1 hPa SSW 4.8 km/h 9.7 km/h 70% 0 mm
16:29 14.6 °C 9 °C 1014.1 hPa South 4.8 km/h 11.3 km/h 69% 0 mm
16:34 14.6 °C 9 °C 1014.1 hPa SSW 4.8 km/h 12.9 km/h 69% 0 mm
16:39 14.6 °C 8.9 °C 1014.1 hPa SSW 9.7 km/h 11.3 km/h 69% 0 mm
16:44 14.4 °C 8.8 °C 1014.1 hPa South 6.4 km/h 12.9 km/h 69% 0 mm
16:49 14.5 °C 8.7 °C 1014.1 hPa South 6.4 km/h 16.1 km/h 68% 0 mm
16:54 14.5 °C 8.7 °C 1014.1 hPa South 9.7 km/h 16.1 km/h 68% 0 mm
16:59 14.4 °C 8.6 °C 1014.1 hPa SSW 6.4 km/h 12.9 km/h 68% 0 mm
17:04 14.3 °C 8.7 °C 1014.1 hPa South 1.6 km/h 14.5 km/h 69% 0 mm
17:09 14.1 °C 8.9 °C 1014.1 hPa South 6.4 km/h 11.3 km/h 71% 0 mm
17:14 13.7 °C 9.1 °C 1014.1 hPa Calm   6.4 km/h 74% 0.25 mm
17:19 13.3 °C 9.2 °C 1014.1 hPa South 4.8 km/h 9.7 km/h 76% 0.25 mm
17:24 13.2 °C 9.2 °C 1013.8 hPa South 4.8 km/h 12.9 km/h 77% 0.51 mm
17:29 12.9 °C 9.3 °C 1013.8 hPa South 3.2 km/h 12.9 km/h 79% 0.76 mm
17:34 12.6 °C 9.2 °C 1013.8 hPa South 1.6 km/h 6.4 km/h 80% 0.76 mm
17:39 12.4 °C 9.3 °C 1013.8 hPa South 3.2 km/h 6.4 km/h 81% 1.02 mm
17:44 12.3 °C 9.3 °C 1013.8 hPa South 1.6 km/h 6.4 km/h 82% 1.27 mm
17:49 12.2 °C 9.4 °C 1013.8 hPa South 1.6 km/h 4.8 km/h 83% 1.52 mm
17:54 11.9 °C 9.3 °C 1014.1 hPa Calm   3.2 km/h 84% 2.03 mm
18:04 11.7 °C 9.4 °C 1013.8 hPa Calm     86% 3.81 mm
18:09 11.7 °C 9.6 °C 1013.8 hPa Calm   4.8 km/h 87% 4.32 mm
18:14 11.7 °C 9.6 °C 1013.4 hPa South 3.2 km/h 4.8 km/h 87% 4.57 mm
18:19 11.5 °C 9.4 °C 1013.4 hPa South 4.8 km/h 4.8 km/h 87% 4.83 mm
18:24 11.3 °C 9.2 °C 1013.4 hPa South 3.2 km/h 4.8 km/h 87% 4.83 mm
18:29 11.3 °C 9.4 °C 1013.4 hPa South 3.2 km/h 6.4 km/h 88% 4.83 mm
18:34 11.1 °C 9.2 °C 1013.1 hPa SSE 3.2 km/h 8 km/h 88% 5.08 mm
18:39 11.1 °C 9.2 °C 1013.1 hPa SSE 1.6 km/h 8 km/h 88% 5.08 mm
18:44 10.9 °C 9.1 °C 1012.8 hPa SSE 1.6 km/h 8 km/h 88% 4.83 mm
18:54 10.8 °C 9.1 °C 1012.8 hPa Calm   4.8 km/h 89% 4.32 mm
18:59 10.7 °C 9 °C 1013.1 hPa Calm     89% 3.56 mm
19:09 10.8 °C 9.1 °C 1012.8 hPa Calm   6.4 km/h 89% 3.05 mm
19:14 10.8 °C 9.1 °C 1012.4 hPa SSE 4.8 km/h 6.4 km/h 89% 2.54 mm
19:19 10.8 °C 9.1 °C 1012.4 hPa SSE 3.2 km/h 8 km/h 89% 2.54 mm
19:24 10.7 °C 9 °C 1012.1 hPa SE 3.2 km/h 6.4 km/h 89% 2.29 mm
19:29 10.6 °C 8.9 °C 1012.1 hPa SE 6.4 km/h 6.4 km/h 89% 2.03 mm
19:34 10.7 °C 9.2 °C 1012.1 hPa South 3.2 km/h 9.7 km/h 90% 1.78 mm
19:39 10.8 °C 9.3 °C 1012.1 hPa SSE 4.8 km/h 14.5 km/h 90% 1.52 mm
19:49 11.2 °C 9.7 °C 1012.1 hPa SSW 11.3 km/h 19.3 km/h 90% 1.78 mm
19:54 11.6 °C 9.8 °C 1012.1 hPa South 9.7 km/h 29 km/h 89% 2.03 mm
19:59 11.8 °C 10.1 °C 1012.1 hPa South 12.9 km/h 29 km/h 89% 1.78 mm
20:04 12.1 °C 10.1 °C 1011.7 hPa South 14.5 km/h 29 km/h 88% 1.78 mm
20:09 12.2 °C 10.2 °C 1012.1 hPa South 12.9 km/h 29 km/h 88% 1.52 mm
20:14 12.3 °C 10.3 °C 1011.7 hPa South 11.3 km/h 25.7 km/h 88% 2.03 mm
20:19 12.4 °C 10.4 °C 1011.7 hPa ESE 6.4 km/h 30.6 km/h 88% 2.03 mm
20:24 12.5 °C 10.4 °C 1011.7 hPa South 14.5 km/h 32.2 km/h 87% 2.29 mm
20:34 12.6 °C 10.4 °C 1011.4 hPa South 14.5 km/h 25.7 km/h 87% 2.79 mm
20:39 12.7 °C 10.6 °C 1011.4 hPa SSW 8 km/h 32.2 km/h 87% 2.79 mm
20:44 12.7 °C 10.6 °C 1011.1 hPa South 16.1 km/h 33.8 km/h 87% 2.79 mm
20:49 12.8 °C 10.5 °C 1011.1 hPa South 16.1 km/h 45.1 km/h 86% 2.79 mm
20:54 12.9 °C 10.6 °C 1010.7 hPa South 17.7 km/h 45.1 km/h 86% 2.54 mm
20:59 12.9 °C 10.7 °C 1010.7 hPa SSE 30.6 km/h 37 km/h 86% 2.54 mm
21:04 13 °C 10.7 °C 1010.7 hPa South 9.7 km/h 40.2 km/h 86% 2.29 mm
21:09 13.1 °C 10.8 °C 1010.7 hPa SSW 16.1 km/h 51.5 km/h 86% 2.29 mm
21:14 13.2 °C 10.7 °C 1010.7 hPa South 17.7 km/h 51.5 km/h 85% 1.78 mm
21:24 13.2 °C 10.8 °C 1010.4 hPa South 19.3 km/h 43.5 km/h 85% 1.27 mm
21:29 13.3 °C 10.9 °C 1010.4 hPa South 17.7 km/h 37 km/h 85% 1.02 mm
21:34 13.4 °C 10.7 °C 1010 hPa South 17.7 km/h 37 km/h 84% 0.76 mm
21:39 13.4 °C 10.8 °C 1010 hPa South 17.7 km/h 37 km/h 84% 0.76 mm
21:44 13.5 °C 10.8 °C 1010 hPa South 17.7 km/h 35.4 km/h 84% 0.51 mm
21:49 13.6 °C 10.8 °C 1010 hPa SSW 29 km/h 38.6 km/h 83% 0.25 mm
21:54 13.7 °C 10.8 °C 1010 hPa SSE 14.5 km/h 40.2 km/h 83% 0.25 mm
21:59 13.7 °C 10.7 °C 1010 hPa South 19.3 km/h 40.2 km/h 82% 0.25 mm
22:04 13.8 °C 10.8 °C 1010 hPa South 29 km/h 30.6 km/h 82% 0.25 mm
22:14 13.9 °C 10.7 °C 1010 hPa SE 17.7 km/h 33.8 km/h 81% 0 mm
22:19 13.9 °C 10.7 °C 1010 hPa South 22.5 km/h 35.4 km/h 81% 0 mm
22:24 13.9 °C 10.6 °C 1009.7 hPa SSW 19.3 km/h 27.4 km/h 80% 0 mm
22:29 13.9 °C 10.6 °C 1010 hPa South 19.3 km/h 35.4 km/h 80% 0 mm
22:34 13.9 °C 10.5 °C 1010 hPa South 19.3 km/h 40.2 km/h 80% 0 mm
22:39 13.8 °C 10.4 °C 1010 hPa South 17.7 km/h 40.2 km/h 80% 0 mm
22:44 13.7 °C 10.3 °C 1009.7 hPa SSW 11.3 km/h 33.8 km/h 80% 0 mm
22:49 13.7 °C 10.3 °C 1009.7 hPa South 17.7 km/h 46.7 km/h 80% 0 mm
23:04 13.8 °C 10.4 °C 1009.7 hPa SSE 9.7 km/h 37 km/h 80% 0 mm
23:09 13.8 °C 10.4 °C 1009.7 hPa SSE 22.5 km/h 37 km/h 80% 0 mm
23:14 13.8 °C 10.4 °C 1009.7 hPa South 29 km/h 33.8 km/h 80% 0 mm
23:24 13.8 °C 10.4 °C 1009.7 hPa SSW 8 km/h 25.7 km/h 80% 0 mm
23:29 13.7 °C 10.5 °C 1009.4 hPa South 14.5 km/h 35.4 km/h 81% 0 mm
23:34 13.8 °C 10.6 °C 1009.7 hPa SSW 11.3 km/h 35.4 km/h 81% 0 mm
23:39 13.9 °C 10.5 °C 1009.4 hPa South 17.7 km/h 35.4 km/h 80% 0 mm
23:44 13.9 °C 10.5 °C 1009.4 hPa South 16.1 km/h 35.4 km/h 80% 0 mm
23:59 13.6 °C 10.6 °C 1009 hPa SSW 16.1 km/h 29 km/h 82% 0 mm
Buffalo, New York, USA
Compliments of Weather Underground - 2.25 mb